EXPRESS AT2

导读 | 豆包AI

EXPRESS AT2(快讯AT2)属于俄罗斯“快讯AT”号广播卫星系列,由俄罗斯卫星通信公司运营。它于2014年3月15日在拜科努尔航天中心,由质子号火箭一箭双星发射入轨,运行于地球同步轨道,定点东经140°。卫星旨在为俄罗斯及欧洲东北部提供电视直播与无线广播服务,设计寿命15年,是俄罗斯区域通信覆盖的重要空间基础设施。

Basic Information
目录编号:
39613
目录名称:
EXPRESS AT2
国际标识:
2014-010B
轨道中心:
EARTH
卫星名称:
EXPRESS AT2
卫星全名:
--
卫星状态:
在轨 (已飞行4430 天)
发射日期:
2014-03-15 UTC
国别 :
俄罗斯(独联体) (CIS)
星等 :
--
Orbit Information
数据来源 国际轨道数据 AOE轨道数据
星历时间 2026-05-01T06:13:05+0800
13小时前
查看轨道信息
2026-05-01T06:00:00+0800
14小时前
查看轨道信息
半长轴 42165.037km 42164.924km
偏心率 0.0000385 0.0000364
轨道倾角 0.015° 0.015°
近地点辐角 38.417° 41.330°
升交点赤经 269.004° 264.415°
平近点角 300.703° 299.099°
近地点 35785.276km 35785.252km
远地点 35788.524km 35788.322km
周期 1436.112分钟 1436.107分钟
每日圈数 1.002707 1.002711
Detailed Information
使用方式:
暂无
2D Orbit Map
3D Orbit Map
Orbit Altitude Analysis Chart
Orbit Inclination Analysis Chart
Orbit Comprehensive Analysis Chart
View Comprehensive Chart